Temp
13 13 13 13 13 13 12 12 12 12 12 12 12 11 11 11 11 11 10 10 10 10 10 10 10 11 11 11 11 11 10 10 10 10 10 10 10 10 10 10 10 10
13 13 13 13 13 13 13 13 12 12 12 12 12 12 11 11 11 11 11 11 10 10 10 10 10 11 11 11 11 11 10 10 10 10 10 10 10 10 10 10 10 9
13 13 13 13 13 13 13 13 13 13 12 12 12 12 12 12 12 12 11 11 11 10 10 10 11 11 11 11 11 11 10 10 10 10 10 10 10 10 10 10 10 10
14 13 13 13 13 13 13 13 13 13 13 12 12 12 12 12 12 12 12 12 11 11 11 11 11 11 11 11 11 11 10 10 11 11 10 10 10 10 10 10 10 10
14 14 13 13 13 13 13 13 13 13 13 13 13 12 12 12 12 12 12 12 12 11 11 11 11 11 11 11 11 11 11 11 11 11 11 10 10 10 10 10 10 10
14 14 14 14 13 13 13 13 13 13 13 13 13 13 13 12 12 12 12 12 12 12 11 11 11 11 11 11 11 11 11 11 11 11 11 10 10 10 10 10 10 10
14 14 14 14 14 14 14 14 13 13 13 13 13 13 13 13 13 12 12 12 12 12 12 12 12 12 12 12 11 11 11 11 11 11 11 10 10 10 10 10 10 10
14 14 14 14 14 14 14 14 14 14 14 13 13 13 13 13 13 13 13 13 12 12 12 12 12 12 12 12 12 12 12 11 11 11 11 11 11 11 11 10 10 10
14 14 14 14 14 14 14 14 14 14 14 14 14 13 13 13 13 13 13 13 13 13 13 12 12 12 12 12 12 12 12 12 11 11 11 11 11 11 11 10 10 10
14 14 14 14 14 14 14 14 14 14 14 14 14 14 13 13 13 13 13 13 13 13 13 13 12 12 12 12 12 12 12 12 12 11 11 11 11 11 11 11 10 10
14 14 14 14 14 14 14 14 14 14 14 14 14 14 14 14 13 13 13 13 13 13 13 13 13 12 12 13 13 13 12 12 12 12 11 11 11 11 11 11 11 10
15 14 14 14 14 14 14 14 14 14 14 14 14 14 14 14 13 13 13 13 13 13 13 13 13 13 13 13 13 13 13 13 12 12 12 11 11 11 11 11 11 11
15 15 15 14 14 14 14 14 14 14 14 14 14 14 14 14 14 14 13 13 13 13 13 13 13 13 13 13 13 13 13 13 13 13 12 12 11 11 11 11 11 11
15 15 15 15 14 14 14 14 15 15 15 15 15 14 14 14 14 14 14 13 13 13 13 13 13 13 13 13 13 13 13 13 13 13 13 12 12 11 11 11 11 11
16 15 15 15 15 15 15 15 15 15 15 15 15 15 15 14 14 14 14 14 13 13 13 13 13 13 13 13 13 13 13 13 13 13 13 12 12 12 11 11 11 11
16 16 15 15 15 15 15 15 15 15 15 15 15 15 15 15 15 15 14 14 14 14 13 13 13 13 14 14 14 13 13 13 13 13 13 13 12 12 12 11 11 11
16 16 16 16 16 16 16 16 15 15 15 15 15 16 16 15 15 15 15 15 14 14 14 14 14 14 14 14 14 14 13 13 13 13 13 13 13 13 12 12 11 11
17 16 16 16 16 16 16 16 15 15 15 15 15 16 16 16 16 15 15 15 15 14 14 14 14 14 14 14 14 14 13 13 13 13 13 13 13 13 12 12 12 12
17 17 16 16 16 16 16 16 15 15 15 15 15 15 15 15 16 16 15 15 15 15 15 14 14 14 14 14 14 14 13 13 13 13 13 13 13 13 13 12 12 12
17 17 16 16 16 16 16 16 16 15 15 15 15 15 15 15 15 15 15 15 15 15 15 15 15 15 15 14 14 14 14 13 13 13 13 13 13 13 13 12 12 12
17 17 17 16 16 16 16 16 16 16 16 15 15 15 15 15 15 15 16 16 15 15 15 15 15 15 15 15 14 14 14 13 13 13 13 13 13 13 13 12 12 12
18 17 17 17 17 17 17 17 16 16 16 16 16 16 15 15 15 15 15 15 15 15 15 15 15 15 15 15 15 14 14 13 13 13 13 13 13 13 13 12 12 12
18 18 17 17 17 17 17 17 17 16 16 16 16 16 16 16 15 15 15 15 15 15 15 15 15 15 15 15 15 14 14 14 13 13 13 13 13 13 13 13 13 12
18 18 18 17 17 17 17 17 17 16 16 16 16 16 15 15 15 15 15 15 15 15 15 15 15 15 15 15 15 15 14 14 14 14 14 14 13 13 13 13 13 13
18 18 18 18 18 17 17 17 17 16 16 16 16 16 15 15 15 15 15 15 15 15 15 15 15 15 15 15 15 15 14 14 14 14 14 14 13 13 13 13 13 13
18 18 18 18 18 18 17 17 17 17 16 16 16 16 16 15 15 15 15 15 15 15 15 15 15 15 15 15 15 15 14 14 14 14 14 14 13 13 13 13 13 13
Height
3194 3196 3198 3200 3201 3203 3204 3205 3207 3208 3208 3209 3210 3211 3212 3212 3213 3213 3214 3216 3216 3217 3217 3218 3218 3219 3220 3220 3221 3222 3222 3223 3223 3224 3225 3225 3225 3224 3224 3224 3224 3224
3192 3194 3196 3197 3199 3201 3202 3204 3205 3206 3207 3208 3209 3210 3210 3211 3211 3211 3213 3213 3214 3215 3215 3216 3216 3217 3218 3219 3220 3221 3221 3222 3222 3223 3224 3224 3224 3223 3223 3223 3223 3223
3190 3191 3193 3195 3197 3199 3200 3201 3202 3204 3205 3206 3207 3208 3208 3209 3209 3210 3210 3211 3212 3213 3213 3214 3215 3216 3217 3217 3219 3219 3220 3221 3221 3221 3222 3222 3222 3222 3222 3222 3222 3222
3187 3189 3191 3193 3195 3196 3197 3199 3200 3201 3203 3204 3205 3206 3206 3207 3208 3208 3208 3209 3210 3211 3211 3212 3213 3214 3215 3216 3217 3218 3219 3219 3219 3220 3220 3221 3221 3221 3221 3221 3222 3222
3185 3187 3188 3190 3192 3193 3195 3196 3198 3199 3200 3202 3203 3204 3204 3205 3206 3206 3206 3207 3208 3209 3210 3211 3211 3212 3213 3214 3215 3216 3217 3218 3218 3218 3219 3219 3220 3220 3220 3220 3220 3220
3182 3184 3186 3188 3189 3191 3192 3194 3195 3197 3198 3199 3200 3201 3202 3203 3204 3204 3204 3205 3205 3206 3207 3208 3210 3210 3211 3212 3213 3214 3215 3216 3216 3217 3217 3217 3218 3218 3219 3219 3219 3219
3179 3181 3183 3185 3187 3188 3189 3191 3193 3194 3196 3197 3197 3198 3200 3200 3201 3202 3202 3202 3203 3204 3205 3206 3207 3208 3209 3210 3211 3212 3213 3214 3215 3215 3215 3215 3216 3216 3217 3217 3217 3217
3176 3178 3180 3182 3183 3185 3186 3188 3190 3191 3193 3194 3194 3196 3197 3198 3198 3199 3199 3200 3200 3201 3202 3203 3205 3206 3207 3208 3209 3210 3211 3212 3212 3213 3213 3213 3214 3214 3215 3215 3215 3215
3173 3174 3176 3178 3180 3181 3183 3185 3186 3188 3190 3190 3192 3193 3194 3195 3195 3196 3197 3197 3198 3198 3199 3200 3201 3203 3204 3205 3206 3207 3208 3209 3210 3211 3212 3212 3212 3212 3213 3213 3213 3214
3169 3171 3173 3174 3176 3177 3179 3181 3183 3184 3186 3187 3189 3190 3191 3191 3192 3193 3193 3194 3195 3195 3196 3197 3198 3200 3201 3203 3204 3205 3206 3207 3207 3208 3209 3210 3210 3210 3211 3211 3211 3211
3166 3168 3169 3171 3172 3174 3176 3178 3179 3181 3182 3183 3185 3186 3187 3188 3189 3190 3190 3191 3192 3193 3193 3194 3195 3197 3198 3200 3201 3202 3203 3204 3205 3205 3206 3207 3207 3208 3208 3208 3209 3209
3163 3165 3166 3168 3169 3171 3172 3174 3175 3177 3178 3180 3181 3183 3183 3184 3185 3186 3187 3188 3189 3190 3191 3191 3193 3194 3195 3196 3198 3199 3200 3201 3202 3203 3203 3204 3205 3205 3206 3206 3206 3207
3160 3161 3163 3165 3167 3168 3170 3171 3172 3173 3174 3176 3177 3179 3180 3180 3181 3182 3184 3185 3186 3187 3187 3188 3189 3190 3191 3193 3195 3196 3197 3198 3199 3200 3200 3201 3202 3202 3203 3204 3204 3204
3156 3158 3160 3162 3164 3166 3167 3168 3169 3170 3171 3172 3173 3175 3176 3176 3177 3179 3180 3181 3182 3183 3184 3185 3186 3186 3187 3189 3191 3192 3194 3195 3196 3196 3197 3198 3199 3199 3200 3201 3201 3201
3153 3155 3157 3159 3161 3162 3163 3164 3166 3167 3168 3169 3169 3171 3172 3173 3174 3175 3176 3177 3178 3178 3179 3180 3181 3182 3183 3185 3187 3188 3190 3191 3192 3193 3194 3195 3195 3196 3197 3198 3198 3199
3149 3151 3154 3155 3157 3158 3159 3161 3162 3163 3164 3165 3166 3167 3169 3170 3170 3171 3172 3173 3173 3174 3175 3176 3177 3178 3179 3181 3183 3185 3186 3188 3189 3190 3190 3191 3192 3193 3193 3194 3195 3195
3145 3148 3150 3152 3154 3155 3156 3157 3159 3160 3161 3162 3163 3164 3165 3166 3167 3167 3168 3169 3169 3170 3171 3171 3172 3174 3176 3178 3180 3181 3182 3184 3185 3186 3187 3188 3188 3189 3190 3191 3191 3192
3142 3145 3147 3148 3150 3151 3152 3153 3155 3156 3157 3158 3159 3161 3162 3163 3163 3164 3165 3165 3165 3166 3166 3167 3168 3170 3172 3174 3176 3178 3179 3180 3181 3182 3183 3183 3184 3185 3186 3187 3187 3188
3139 3141 3143 3145 3146 3148 3149 3150 3152 3153 3154 3155 3156 3157 3159 3160 3160 3161 3161 3161 3161 3162 3163 3163 3164 3166 3168 3170 3172 3174 3175 3176 3176 3177 3178 3179 3180 3181 3182 3183 3183 3184
3136 3138 3140 3141 3143 3144 3146 3147 3149 3151 3152 3152 3153 3154 3155 3156 3157 3157 3158 3158 3158 3158 3159 3160 3160 3162 3164 3166 3168 3170 3171 3172 3172 3173 3174 3175 3176 3177 3178 3179 3180 3180
3132 3134 3136 3138 3139 3141 3142 3144 3146 3147 3148 3149 3149 3150 3151 3152 3153 3154 3154 3154 3154 3154 3155 3155 3156 3158 3159 3161 3164 3166 3168 3168 3168 3168 3169 3171 3172 3173 3173 3175 3176 3176
3129 3131 3133 3135 3136 3137 3138 3140 3142 3143 3144 3145 3146 3146 3147 3148 3149 3150 3150 3150 3151 3151 3151 3151 3152 3154 3155 3157 3159 3162 3163 3163 3163 3163 3164 3166 3167 3168 3169 3170 3171 3171
3126 3128 3129 3131 3132 3133 3134 3136 3138 3139 3140 3141 3142 3142 3143 3144 3145 3146 3147 3147 3147 3147 3147 3147 3148 3149 3150 3152 3154 3157 3158 3158 3158 3158 3159 3160 3161 3163 3164 3165 3166 3166
3123 3124 3126 3127 3128 3129 3131 3133 3134 3135 3136 3137 3138 3139 3139 3140 3140 3141 3142 3142 3142 3143 3143 3143 3143 3144 3145 3147 3148 3151 3153 3153 3153 3153 3153 3154 3156 3157 3158 3159 3160 3160
3119 3121 3122 3123 3125 3126 3127 3128 3129 3130 3131 3133 3134 3135 3135 3136 3136 3136 3137 3137 3137 3138 3138 3138 3139 3139 3140 3141 3142 3145 3147 3148 3148 3148 3147 3148 3150 3151 3152 3153 3154 3155
3115 3117 3118 3120 3120 3121 3122 3123 3124 3126 3127 3128 3129 3130 3130 3131 3131 3131 3132 3132 3132 3132 3132 3132 3133 3134 3134 3135 3137 3139 3141 3142 3143 3142 3142 3142 3144 3146 3146 3147 3148 3149
Wind_Speed
29 27 25 23 22 22 21 20 19 19 18 16 14 13 13 15 17 20 20 21 22 21 20 20 19 19 19 20 20 19 17 14 12 11 11 9 7 6 4 3 2 1
30 29 27 25 24 23 22 21 21 21 20 19 17 14 13 15 18 21 22 23 23 23 22 22 21 20 21 21 21 20 18 16 14 14 13 10 7 6 4 3 2 1
30 30 28 27 25 24 23 23 22 22 22 21 20 17 16 15 17 19 22 24 24 25 25 24 23 22 22 22 22 21 20 18 16 16 15 12 8 6 4 3 2 1
30 30 29 28 27 26 26 25 24 24 23 23 21 20 18 17 16 18 20 23 25 26 27 26 25 23 23 24 23 23 23 20 18 19 17 13 10 7 6 5 4 3
29 29 29 28 28 28 27 27 26 25 24 24 23 22 20 19 18 18 19 21 24 27 27 27 26 25 25 25 25 25 25 22 21 21 18 14 11 9 7 7 7 6
30 30 30 29 29 28 28 27 27 26 26 26 25 24 22 21 20 19 19 20 22 25 27 28 28 27 26 26 26 26 25 23 23 23 19 16 13 11 9 9 9 9
31 31 30 30 30 29 29 28 28 28 27 28 27 26 24 23 22 21 21 20 21 24 26 28 29 29 28 27 27 27 25 25 25 24 21 18 16 13 12 11 12 12
30 31 31 31 31 31 30 29 29 29 29 29 29 28 27 26 24 23 23 22 22 24 26 28 30 30 30 29 29 27 26 26 27 26 22 20 18 16 14 13 14 14
29 30 31 32 32 32 32 31 30 30 30 31 30 29 29 29 27 26 26 25 24 25 27 29 31 32 32 31 30 29 27 28 28 27 24 22 20 18 17 16 16 17
26 28 29 31 32 33 32 32 32 32 32 32 32 32 32 31 30 29 29 28 27 27 28 30 32 33 34 33 32 31 29 29 29 29 27 24 23 21 20 19 18 19
26 26 27 29 30 32 33 34 34 34 34 34 33 34 34 34 33 32 31 30 29 29 29 30 32 34 35 35 33 32 31 31 31 30 29 27 25 24 23 22 21 21
28 27 27 27 27 29 31 34 35 36 36 35 35 36 36 36 36 35 34 33 31 31 30 31 32 34 36 36 35 34 33 32 32 32 30 29 27 27 26 25 24 23
30 30 29 28 27 27 29 31 32 33 34 34 35 36 37 37 37 36 35 34 34 34 33 32 33 34 37 38 37 36 35 35 34 34 33 31 30 29 29 28 27 26
32 31 30 30 29 28 28 28 28 29 30 31 32 34 35 37 37 36 35 35 36 36 36 35 34 35 37 39 39 38 37 37 36 35 34 33 32 31 31 31 30 29
34 34 32 31 31 30 29 28 28 27 27 28 29 29 30 33 34 34 34 35 37 38 38 37 36 36 37 39 40 40 39 39 38 37 36 35 34 33 33 33 32 31
36 35 34 33 32 32 31 30 29 29 29 29 28 27 28 29 30 31 32 34 36 38 39 39 39 38 38 38 40 41 41 41 40 39 38 37 36 35 34 34 34 33
36 36 35 34 33 32 32 32 31 31 31 31 30 29 28 28 29 30 30 32 35 37 39 40 40 40 38 38 39 41 43 42 42 42 41 40 38 37 36 35 35 34
36 36 36 35 34 34 34 34 33 33 34 33 32 31 29 30 30 31 31 32 34 36 38 39 40 40 39 38 38 41 43 44 44 44 43 42 41 39 37 36 36 36
35 35 36 35 35 35 36 35 34 34 35 35 34 33 32 31 32 32 32 33 35 36 37 38 40 41 40 39 38 40 43 45 46 46 45 44 43 41 40 39 38 38
33 34 35 35 36 36 37 36 35 35 36 35 36 36 35 33 33 34 34 34 36 37 37 38 39 40 40 40 39 40 43 46 47 48 48 47 45 44 43 41 39 39
32 33 34 35 36 37 38 37 36 36 36 37 37 38 37 35 34 34 34 35 37 38 38 38 38 39 40 40 40 40 42 46 48 50 49 49 48 47 45 43 42 42
32 33 35 36 37 38 37 37 36 36 36 37 38 38 38 37 36 35 35 36 37 38 40 40 38 38 39 40 40 40 42 46 49 50 50 50 50 49 48 46 45 44
33 34 35 36 37 37 36 35 35 35 36 37 38 38 39 38 37 37 36 36 36 37 40 42 41 40 39 40 41 41 42 46 49 50 51 50 50 50 50 49 47 47
34 34 34 35 36 35 35 35 35 35 36 37 37 38 38 37 38 38 37 37 37 38 39 41 43 43 41 41 42 42 43 46 49 50 51 51 51 51 51 50 50 50
34 34 34 35 35 35 36 36 37 37 38 38 37 38 38 38 39 39 39 39 40 40 40 41 43 44 44 43 43 43 45 47 49 52 53 53 53 52 52 52 52 52
36 36 36 36 37 38 39 39 39 39 39 39 39 39 40 40 41 41 41 42 42 43 43 42 42 44 46 46 46 45 45 48 50 53 54 55 54 54 54 54 54 54
Wind_Direction
213 213 214 217 220 225 228 229 230 232 233 235 236 236 234 229 227 227 224 222 222 222 222 224 223 218 217 220 220 218 213 208 212 214 204 192 177 167 166 164 162 144
215 215 217 219 221 225 228 230 232 233 234 235 236 236 235 233 231 228 226 224 222 222 222 223 223 217 215 217 218 219 217 212 212 212 207 200 187 177 175 175 169 155
217 217 219 221 223 226 229 230 232 233 234 235 236 237 237 238 237 234 231 228 224 223 223 224 223 219 216 217 217 219 220 217 213 211 208 203 195 189 184 180 182 183
221 220 220 222 224 226 228 229 231 233 235 236 237 239 240 242 245 243 237 233 230 227 226 225 224 220 218 218 218 220 223 222 215 210 209 204 198 198 198 201 210 217
225 224 222 223 224 225 227 228 229 232 235 237 238 240 242 243 247 249 246 240 235 232 230 228 225 222 220 220 221 224 226 225 218 211 209 205 202 204 210 218 229 240
229 228 226 226 226 227 228 228 229 230 234 237 239 240 243 244 245 249 250 247 241 237 235 232 228 224 222 221 224 227 228 226 220 213 211 208 207 211 218 227 238 249
231 231 230 230 230 231 231 230 230 230 232 236 239 241 242 245 246 247 250 250 245 241 238 235 231 226 223 223 226 229 229 226 220 216 214 213 214 219 224 233 243 252
231 231 232 233 233 233 233 233 233 233 234 236 239 241 242 245 246 246 248 249 246 244 240 237 233 228 225 224 227 229 228 225 222 219 219 219 221 226 230 237 246 253
231 232 233 233 234 235 235 236 237 237 237 238 240 242 242 244 246 246 247 247 246 244 241 238 234 230 226 225 228 229 227 225 224 223 224 226 228 232 235 241 248 254
231 232 234 235 236 238 238 239 240 241 241 241 242 243 244 245 245 246 248 248 247 245 243 239 235 232 228 227 228 230 229 227 226 227 229 230 232 235 239 243 249 254
231 231 234 235 236 239 241 242 243 243 244 243 243 244 246 246 246 246 249 250 249 248 246 242 238 234 231 229 229 230 230 229 229 230 232 234 235 238 241 245 249 253
232 232 233 234 235 237 239 241 242 243 244 244 243 244 246 247 248 247 249 250 250 250 249 246 242 238 234 231 229 230 231 231 231 232 234 235 237 239 242 245 249 253
231 231 232 233 233 234 237 239 240 241 243 243 243 243 245 247 249 249 249 250 250 250 249 248 245 241 237 233 231 231 232 232 233 234 235 237 238 240 242 245 248 252
228 229 230 230 232 233 234 237 238 239 241 243 243 242 244 246 249 250 250 249 249 249 249 248 246 242 239 236 233 233 234 234 234 235 237 238 240 240 242 245 247 250
226 228 228 227 228 230 231 233 236 238 239 242 244 243 243 245 248 249 248 247 247 247 247 247 246 243 241 238 236 235 235 235 236 237 238 240 241 242 243 246 249 251
226 227 227 226 226 228 231 232 234 237 239 241 243 244 244 245 248 248 247 245 245 245 245 246 245 243 241 240 238 237 236 237 237 239 240 241 243 244 245 247 251 254
228 227 227 227 227 229 232 233 234 237 240 242 242 243 244 245 247 248 247 245 245 245 245 245 246 245 243 242 241 239 238 238 238 239 241 242 244 245 246 248 252 255
230 229 229 229 230 231 233 235 235 237 241 244 244 243 244 245 247 249 249 248 247 247 247 246 246 246 245 243 242 241 240 240 240 241 241 242 244 246 247 248 251 254
231 230 231 232 232 234 236 236 237 238 242 246 248 247 245 246 248 250 250 250 250 249 249 248 247 247 246 244 242 241 240 240 241 242 243 244 245 246 247 248 250 253
233 232 233 233 234 236 237 239 239 240 243 247 249 250 249 248 249 250 250 251 252 252 251 250 249 249 248 246 243 241 241 241 241 242 243 244 245 246 247 248 249 252
237 236 235 234 236 238 240 242 242 243 245 247 249 251 252 252 251 251 252 252 253 254 254 253 253 251 250 248 244 242 241 241 242 242 243 244 245 246 247 248 249 251
238 238 236 236 237 240 243 245 245 246 247 248 249 251 253 253 253 253 253 253 254 255 256 257 256 254 253 251 246 242 241 242 242 243 245 246 246 246 247 248 249 250
237 236 236 236 238 241 244 246 246 246 245 246 248 250 252 254 256 255 254 255 256 256 256 257 258 256 255 254 250 243 240 241 243 245 246 247 247 247 248 249 250 251
232 234 235 236 237 240 242 243 243 243 242 242 245 248 251 254 255 254 255 257 258 257 256 257 258 258 257 255 252 246 241 241 244 246 247 248 248 248 249 250 251 251
230 233 235 236 238 239 238 237 236 236 237 238 240 243 246 248 249 252 254 257 258 258 257 256 256 256 256 256 254 249 244 241 243 245 247 248 249 249 249 250 250 251
230 232 234 236 238 238 236 234 233 234 236 237 238 239 241 243 246 249 252 254 256 258 258 257 255 254 254 255 255 252 247 243 242 245 247 249 249 249 250 250 250 250